{"data":{"norad_id":62772,"epoch":"2026-05-25T04:48:09.116064Z","epoch_age_seconds":58039,"freshness":"FRESH","line1":"1 62772U 25015Q   26145.20010551  .00027180  00000+0  88388-3 0  9994","line2":"2 62772  53.1589 327.1817 0001045  69.2053 290.9060 15.31720434 76190","mean_motion":15.31720434,"eccentricity":0.0001045,"inclination_deg":53.1589,"raan_deg":327.1817,"arg_perigee_deg":69.2053,"mean_anomaly_deg":290.906,"bstar":0.00088388,"rev_number":7619,"period_min":94.011933773027,"perigee_km":469.96338193143,"apogee_km":471.39478449282,"semimajor_km":6848.8160832121,"source":"CELESTRAK","updated_at":"2026-05-25T13:38:19.746052Z"}}